IU1OPQ-3 Weather Reports


time (UTC)temp
F
wind
direction
speed
knots
gust
knots
rain 1hr
in
rain 24hr
in
rain mn
in
humidity
%
barometer
mb
20260906114001 80 212 5.2 7.0 0.00 0.00 0.00 51 1023.1
20260906112001 80 227 3.5 6.1 0.00 0.00 0.00 54 1023.3
20260906110000 78 283 5.2 7.8 0.00 0.00 0.00 58 1023.2
20260906104000 78 234 5.2 7.8 0.00 0.00 0.00 62 1023.2
20260906102001 76 253 7.0 7.8 0.00 0.00 0.00 64 1023.3
20260906100000 76 264 5.2 8.7 0.00 0.00 0.00 64 1023.7
20260906094000 75 266 3.5 9.6 0.00 0.00 0.00 66 1023.6
20260906092001 74 241 5.2 7.8 0.00 0.00 0.00 67 1023.5
20260906090001 73 285 3.5 5.2 0.00 0.00 0.00 69 1023.5
20260906084000 73 262 3.5 7.0 0.00 0.00 0.00 70 1023.3
20260906082000 72 240 4.3 4.3 0.00 0.00 0.00 71 1023.4
20260906080001 72 191 4.3 5.2 0.00 0.00 0.00 71 1023.3
20260906074001 71 251 3.5 7.8 0.00 0.00 0.00 70 1023.2
20260906072001 71 204 5.2 7.0 0.00 0.00 0.00 68 1023.0
20260906070000 70 243 6.1 6.1 0.00 0.00 0.00 68 1022.8
20260906064001 70 249 3.5 5.2 0.00 0.00 0.00 69 1022.6
20260906062001 70 243 2.6 5.2 0.00 0.00 0.00 69 1022.7
20260906060000 70 218 2.6 5.2 0.00 0.00 0.00 68 1022.2
20260906054000 69 230 4.3 4.3 0.00 0.00 0.00 69 1022.0
20260906052000 70 224 5.2 6.1 0.00 0.00 0.00 67 1021.7
20260906050000 71 218 4.3 7.8 0.00 0.00 0.00 66 1021.4
20260906044001 71 259 5.2 5.2 0.00 0.00 0.00 65 1021.4
20260906042000 72 261 3.5 7.0 0.00 0.00 0.00 64 1021.1
20260906040000 73 265 2.6 7.8 0.00 0.00 0.00 63 1021.0
20260906034000 73 194 6.1 7.8 0.00 0.00 0.00 62 1020.8
20260906032001 73 234 5.2 10.4 0.00 0.00 0.00 62 1020.7
20260906030000 74 218 3.5 12.2 0.00 0.00 0.00 62 1020.8
20260906024000 74 240 2.6 5.2 0.00 0.00 0.00 64 1020.5
20260906022000 74 230 3.5 6.1 0.00 0.00 0.00 63 1020.5
20260906020000 75 245 6.1 6.1 0.00 0.00 0.00 61 1020.5
20260906014000 75 191 6.1 7.0 0.00 0.00 0.00 60 1020.3
20260906012000 75 211 4.3 5.2 0.00 0.00 0.00 58 1020.5
20260906010001 75 230 0.0 2.6 0.00 0.00 0.00 56 1020.4
20260906004001 75 309 0.0 0.9 0.00 0.00 0.00 56 1020.6
20260906002000 76 256 1.7 4.3 0.00 0.00 0.00 54 1020.4
20260906000001 76 265 1.7 2.6 0.00 0.00 0.00 54 1020.6
20260905234001 77 295 0.9 2.6 0.00 0.00 0.00 51 1020.4
20260905232001 77 224 0.9 1.7 0.00 0.00 0.00 51 1020.2
20260905230000 77 183 1.7 1.7 0.00 0.00 0.00 52 1020.2
20260905224000 75 95 1.7 2.6 0.00 0.00 0.00 58 1020.1
20260905222001 76 103 3.5 4.3 0.00 0.00 0.00 56 1020.1
20260905220001 74 69 0.0 4.3 0.00 0.00 0.00 60 1020.1
20260905214000 75 70 2.6 3.5 0.00 0.00 0.00 57 1020.0
20260905212001 76 123 1.7 3.5 0.00 0.00 0.00 55 1019.9
20260905210000 75 115 2.6 5.2 0.00 0.00 0.00 58 1019.8
20260905204001 76 143 6.1 9.6 0.00 0.00 0.00 57 1019.5
20260905202000 76 109 4.3 11.3 0.00 0.00 0.00 55 1019.2
20260905200000 76 84 7.8 12.2 0.00 0.00 0.00 55 1019.1
20260905194000 76 35 6.1 9.6 0.00 0.00 0.00 54 1018.7
20260905192001 76 78 7.0 11.3 0.00 0.00 0.00 55 1018.6
20260905190000 76 16 3.5 7.0 0.00 0.00 0.00 55 1018.5
20260905184001 77 46 2.6 8.7 0.00 0.00 0.00 54 1018.4
20260905182000 77 44 5.2 7.8 0.00 0.00 0.00 54 1018.0
20260905180000 78 212 0.9 7.0 0.00 0.00 0.00 54 1018.0
20260905174001 79 73 3.5 7.8 0.00 0.00 0.00 52 1017.9
20260905172001 80 213 1.7 8.7 0.00 0.00 0.00 50 1017.9
20260905170000 81 107 1.7 7.8 0.00 0.00 0.00 49 1017.8
20260905164000 82 332 2.6 8.7 0.00 0.00 0.00 49 1017.7
20260905162001 83 98 6.1 9.6 0.00 0.00 0.00 49 1017.9
20260905160001 84 109 3.5 7.8 0.00 0.00 0.00 50 1017.7
20260905154000 85 72 3.5 9.6 0.00 0.00 0.00 50 1017.8
20260905152001 85 59 2.6 9.6 0.00 0.00 0.00 49 1017.7
20260905150000 87 84 2.6 7.8 0.00 0.00 0.00 47 1017.7
20260905144001 87 65 2.6 7.8 0.00 0.00 0.00 45 1017.7
20260905142001 88 176 3.5 6.1 0.00 0.00 0.00 46 1017.9
20260905140001 88 44 2.6 7.8 0.00 0.00 0.00 46 1018.2
20260905134001 89 69 4.3 7.8 0.00 0.00 0.00 45 1018.2
20260905132000 88 27 0.9 4.3 0.00 0.00 0.00 40 1018.3
20260905130000 88 67 2.6 4.3 0.00 0.00 0.00 40 1018.4
20260905124001 90 145 0.0 2.6 0.00 0.00 0.00 38 1018.5
20260905122000 87 132 1.7 4.3 0.00 0.00 0.00 43 1018.5
20260905120001 88 2 1.7 3.5 0.00 0.00 0.00 44 1018.6